sat.trackr.live / text

‹ back to catalog

STARLINK-32664

NORAD 62204 · 2024-229N

PAYLOAD ACTIVE UNKNOWN

§ Identity

Operator
Country
US
Launch date
2024-12-04
Launch site
AFETR
Launch vehicle
Mass (kg)
RCS (m²)

Purposes: comms

External: N2YO · Heavens-Above · Gunter

§ Orbital elements

Epoch: 2026-09-21T22:00:03.000096Z

Period
91.10 min
Inclination
42.9838°
Eccentricity
0.0028659
Mean motion
15.80750238 rev/d
Perigee alt
309.1 km
Apogee alt
347.5 km
Semi-major
6,706.5 km
B*
3.1121e-5
RAAN
190.0559°
Arg perigee
186.0906°
Mean anomaly
43.8537°
Rev number
600

§ Raw data

STARLINK-326641 62204U 24229N   26264.91670139  .00005803  00000+0  31121-4 0  99962 62204  42.9838 190.0559 0028659 186.0906  43.8537 15.80750238  6004

JSON: /api/v1/satellites/62204 · /tle

For live sub-satellite position, see the globe view (requires WebGL).

§ Visibility from observer

Set your observer location to see the next 7 days of passes ≥ 10°. The values pass through the URL so the page stays shareable.

No JS? Fill the form by hand. The geolocation button needs JavaScript.